SCP
-0 0 0 0 0 0 0 -0 -0 0 0 -0 0 -0 -0 -0 -0 0 -0 -0 0 -0 -0 -0 -0 -0 -0 -0 -0 -0 -0 -0 -0 -0 -0 -0 -0 -0 -0 -0 -0 -0 -0 -0 -0 -0 -0 -0 -0
-0 -0 0 0 -0 0 0 0 -0 -0 -0 -0 0 0 -0 -0 -0 -0 -0 -0 0 -0 -0 -0 -0 -0 -0 -0 -0 -0 -0 -0 -0 -0 -0 -0 -0 -0 -0 -0 -0 -0 -0 -0 -0 -0 -0 -0 -0
-0 -0 -0 0 0 0 0 0 0 -0 -0 0 -0 -0 -0 -0 -0 0 0 0 0 -0 -0 -0 -0 -0 -0 -0 -0 -0 -0 -0 -0 -0 -0 -0 -0 -0 -0 -0 -0 -0 -0 -0 -0 -0 -0 -0 -0
-0 -0 -0 0 0 0 0 0 0 -0 -0 0 -0 -0 -0 -0 0 -0 -0 -0 -0 -0 -0 -0 -0 -0 -0 -0 -0 -0 -0 -0 -0 -0 -0 -0 -0 -0 -0 -0 -0 -0 -0 -0 -0 -0 -0 -0 -0
0 0 0 -0 -0 0 0 0 0 0 0 0 0 -0 -0 -0 -0 -0 -0 -0 -0 -0 -0 -0 -0 -0 -0 -0 -0 -0 -0 -0 -0 -0 -0 -0 -0 -0 -0 -0 -0 -0 -0 -0 -0 -0 -0 -0 -0
0 0 -0 0 0 0 0 0 0 0 -0 0 0 -0 0 -0 -0 -0 -0 -0 -0 -0 -0 -0 -0 -0 -0 0 -0 -0 -0 -0 -0 -0 -0 -0 -0 -0 -0 -0 -0 -0 -0 -0 -0 -0 -0 -0 0
0 0 -0 -0 0 0 0 0 0 0 0 0 0 -0 0 -0 0 -0 -0 -0 -0 -0 0 -0 -0 -0 0 0 0 0 0 -0 -0 -0 -0 -0 -0 -0 -0 -0 -0 -0 -0 -0 0 0 0 0 0
0 0 0 0 0 0 0 0 0 0 0 0 0 0 0 0 0 0 -0 -0 -0 -0 -0 -0 -0 0 0 0 0 0 0 0 0 0 -0 0 0 -0 -0 0 -0 0 -0 0 0 0 0 0 0
0 0 0 0 0 0 0 0 0 0 0 0 0 0 0 0 0 0 0 0 0 0 0 0 0 0 0 0 0 0 0 0 0 0 0 0 0 0 0 0 -0 -0 0 0 0 0 0 0 0
0 0 0 0 0 0 0 0 0 0 0 0 0 0 0 0 0 0 0 0 0 0 0 0 0 0 0 0 0 0 0 0 0 0 0 0 0 0 0 0 0 0 0 0 0 0 0 0 0
0 0 0 0 0 0 0 0 0 0 0 0 0 0 0 0 0 0 0 0 0 0 0 0 0 0 0 0 0 0 0 0 0 0 0 0 0 0 0 0 0 0 0 0 0 0 0 0 0
0 0 0 0 0 0 0 0 0 0 0 0 0 0 0 0 0 0 0 0 0 0 0 0 0 0 0 0 0 0 0 0 0 0 0 0 0 0 0 0 0 0 0 0 0 0 0 0 0
0 0 0 0 0 0 0 0 0 0 0 0 0 0 0 0 0 0 0 0 0 0 0 0 0 0 0 0 0 0 0 0 0 0 0 0 0 0 0 0 0 0 0 0 0 0 0 0 0
0 0 0 0 0 0 0 0 0 0 0 0 0 0 0 0 0 0 0 0 0 0 0 0 0 0 0 0 0 0 0 0 0 0 0 0 0 0 0 0 0 0 0 0 0 0 0 0 0
0 0 0 0 0 0 0 0 0 0 0 0 0 0 0 0 0 0 0 0 0 0 0 0 0 0 0 0 0 0 0 0 0 0 0 0 0 0 0 0 0 0 0 0 0 0 0 0 0
0 0 0 0 0 0 0 0 0 0 0 0 0 0 0 0 0 0 0 0 0 0 0 0 0 0 0 0 0 0 0 0 0 0 0 0 0 0 0 0 0 0 0 0 0 0 0 0 0
0 0 0 0 0 0 0 0 0 0 0 0 0 0 0 0 0 0 0 0 0 0 0 0 0 0 0 0 0 0 0 0 0 0 0 0 0 0 0 0 0 0 0 0 0 0 0 0 0
0 0 0 0 0 0 0 0 0 0 0 0 0 0 0 0 0 0 0 0 0 0 0 0 0 0 0 0 0 0 0 0 0 0 0 0 0 0 0 0 0 0 0 0 0 0 0 0 0
0 0 0 0 0 0 0 0 0 0 0 0 0 0 0 0 0 0 0 0 0 0 0 0 0 0 0 0 0 0 0 0 0 0 0 0 0 0 0 0 0 0 0 0 0 0 0 0 0
0 0 0 0 0 0 0 0 0 0 0 0 0 0 0 0 0 0 0 0 0 0 0 0 0 0 0 0 0 0 0 0 0 0 0 0 0 0 0 0 0 0 0 0 0 0 0 0 0
0 0 0 0 0 0 0 0 0 0 0 0 0 0 0 0 0 0 0 0 0 0 0 0 0 0 0 0 0 0 0 0 0 0 0 0 0 0 0 0 0 0 0 0 0 0 0 0 0
0 0 0 0 0 0 0 0 0 0 0 0 0 0 0 0 0 0 0 0 0 0 0 0 0 0 0 0 0 0 0 0 0 0 0 0 0 0 0 0 0 0 0 0 0 0 0 0 0
0 0 0 0 0 0 0 0 0 0 0 0 0 0 0 0 0 0 0 0 0 0 0 0 0 0 0 0 0 0 0 0 0 0 0 0 0 0 0 0 0 0 0 0 0 0 0 0 0
0 0 0 0 0 0 0 0 0 0 0 0 0 0 0 0 0 0 0 0 0 0 0 0 0 0 0 0 0 0 0 0 0 0 0 0 0 0 0 0 0 0 0 0 0 0 0 0 0
0 0 0 0 0 0 0 0 0 0 0 0 0 0 0 0 0 0 0 0 0 0 0 0 0 0 0 0 0 0 0 0 0 0 0 0 0 0 0 0 0 0 0 0 0 0 0 0 0
0 0 0 0 0 0 0 0 0 0 0 0 0 0 0 0 0 0 0 0 0 0 0 0 0 0 0 0 0 0 0 0 0 0 0 0 0 0 0 0 0 0 0 0 0 0 0 0 0
0 0 0 0 0 0 0 0 0 0 0 0 0 0 0 0 0 0 0 0 0 0 0 0 0 0 0 0 0 0 0 0 0 0 0 0 0 0 0 0 0 0 0 0 0 0 0 0 0
0 0 0 0 0 0 0 0 0 0 0 0 0 0 0 0 0 0 0 0 0 0 0 0 0 0 0 0 0 0 0 0 0 0 0 0 0 0 0 0 0 0 0 0 0 0 0 0 0
0 0 0 0 0 0 0 0 0 0 0 0 0 0 0 0 0 0 0 0 0 0 0 0 0 0 0 0 0 0 0 0 0 0 0 0 0 0 0 0 0 0 0 0 0 0 0 0 0
0 0 0 0 0 0 0 0 0 0 0 0 0 0 0 0 0 0 0 0 0 0 0 0 0 0 0 0 0 0 0 0 0 0 0 0 0 0 0 0 0 0 0 0 0 0 0 0 0
Wind_Speed_500mb
2 5 4 8 5 5 9 7 4 8 15 22 13 31 25 40 13 10 15 6 21 19 19 26 22 20 21 20 17 14 12 12 13 14 14 12 14 17 20 23 26 27 26 20 19 18 17 17 16
5 10 7 9 4 7 8 12 17 17 20 12 8 9 40 19 32 24 9 6 23 23 14 26 22 19 15 15 15 12 13 12 11 13 11 9 12 14 17 21 24 25 22 20 15 14 14 13 13
9 9 6 4 3 10 10 10 16 22 10 2 9 21 18 12 19 10 9 14 21 27 10 18 20 18 13 11 11 10 9 6 6 7 7 9 11 13 15 20 25 28 24 18 13 12 11 10 9
7 4 9 3 9 11 17 15 18 21 14 4 14 22 21 15 7 15 15 21 14 24 21 18 20 19 16 14 10 6 2 3 5 5 6 8 10 8 13 20 25 28 31 24 16 13 12 11 10
14 8 5 4 14 9 15 20 2 8 11 14 2 20 23 21 23 17 16 19 10 24 17 20 27 22 20 16 10 8 1 2 4 5 5 8 10 11 15 21 23 25 27 25 17 15 13 12 11
8 5 6 7 12 13 14 10 8 7 19 9 22 26 11 14 13 19 12 21 12 23 20 14 28 25 23 19 14 13 7 9 3 3 5 5 8 8 14 20 22 24 23 23 21 19 19 17 14
7 5 11 14 14 11 10 10 8 10 14 15 8 13 22 12 15 14 16 15 21 15 19 15 21 25 22 20 17 16 9 9 7 3 1 2 5 9 12 16 20 22 20 20 22 22 21 19 15
6 3 7 6 4 7 15 11 10 11 11 13 2 5 13 9 14 9 10 8 11 16 23 28 25 28 34 29 26 24 21 20 13 10 9 9 10 11 12 15 26 27 21 17 16 18 20 19 16
5 4 7 5 8 8 18 9 5 4 12 11 4 7 14 9 12 11 4 3 9 14 16 18 18 20 33 34 25 27 23 21 18 15 14 13 12 9 6 13 19 33 23 25 27 22 21 18 14
4 4 11 16 17 8 19 6 24 8 17 10 12 6 5 4 15 18 23 15 16 15 19 21 22 21 25 33 34 21 24 26 21 20 16 16 12 13 2 12 19 21 20 20 24 31 23 25 20
1 4 10 11 15 16 15 3 4 7 7 18 23 10 4 3 11 16 18 20 17 16 18 20 24 26 27 29 29 29 28 20 18 16 16 12 14 13 3 6 16 19 19 21 20 26 30 27 29
6 3 7 7 2 2 2 3 3 5 10 11 15 11 9 9 9 11 11 10 12 15 17 17 16 19 27 29 26 20 28 31 26 16 15 18 14 10 5 5 7 16 14 17 18 16 23 30 32
9 6 0 3 4 6 4 8 11 15 15 13 11 11 13 12 9 8 9 9 10 14 17 17 16 15 14 24 23 28 27 30 30 23 17 16 11 6 3 6 9 10 5 15 17 16 19 23 25
9 10 13 12 14 11 8 15 10 18 22 15 11 14 17 15 13 13 13 15 15 18 18 18 17 18 20 32 35 35 33 27 23 18 15 14 11 10 11 16 13 8 15 11 16 19 20 33 21
6 9 15 28 22 7 16 13 18 25 23 21 21 19 16 15 14 17 16 18 21 20 21 20 20 20 29 34 39 39 33 25 17 13 8 8 12 12 10 10 6 6 13 15 19 14 20 22 18
7 8 6 8 29 11 14 13 21 32 32 29 24 19 16 16 14 17 18 21 19 19 18 15 18 20 26 33 36 36 32 26 23 20 15 14 12 10 6 2 3 7 6 6 9 12 12 11 19
13 10 16 8 27 12 17 4 16 30 32 33 30 25 20 20 17 19 19 19 17 15 10 10 18 26 33 36 39 37 35 31 28 22 20 16 10 6 4 4 4 4 5 5 9 12 13 16 18
13 12 13 13 15 11 15 22 12 34 38 42 36 31 26 21 23 22 18 17 15 15 18 22 29 34 37 38 35 38 34 31 26 25 22 17 16 11 7 6 4 2 4 6 8 10 14 18 22
18 19 15 10 7 11 19 21 18 44 39 40 42 39 34 28 31 21 22 21 21 24 28 33 36 40 42 45 45 40 36 32 30 28 23 22 24 22 18 15 13 12 12 16 17 17 19 23 25
20 21 18 16 16 7 15 23 19 35 44 60 52 45 41 39 27 26 29 31 31 32 36 46 50 50 47 45 41 39 39 36 31 34 33 28 23 20 16 14 14 14 15 16 19 22 26 29 33
17 18 15 17 9 9 12 17 26 23 42 44 44 46 45 45 39 38 40 41 41 43 47 47 46 44 43 41 43 43 43 47 42 37 31 28 22 18 15 14 14 15 15 17 20 24 27 31 32
19 16 22 14 8 9 14 12 12 14 16 21 40 40 49 46 44 43 47 53 52 50 46 44 42 39 38 40 47 52 50 46 39 34 28 23 18 15 13 13 13 14 18 20 24 27 29 29 31
8 10 2 5 11 11 14 15 12 16 18 30 43 54 51 54 53 54 52 56 57 55 54 51 48 49 52 53 48 42 44 41 37 30 24 19 15 12 11 12 16 18 21 24 25 27 31 33 34
15 10 6 3 2 13 22 23 14 23 25 22 37 54 57 60 57 55 57 60 63 61 59 56 53 52 48 44 42 40 38 37 34 27 18 14 11 10 11 13 14 17 21 24 27 30 32 33 32
10 13 3 4 4 16 8 20 35 5 10 17 41 62 67 69 64 66 68 68 68 68 64 58 53 52 50 48 46 45 40 35 29 19 10 8 7 5 5 7 10 15 19 22 24 27 29 30 31
19 18 11 13 10 7 7 14 11 6 15 21 63 69 72 75 72 74 74 73 72 69 64 59 56 54 51 49 49 46 40 32 24 12 4 7 5 4 3 3 7 12 17 21 25 27 27 27 28
12 18 20 9 3 4 11 15 10 11 4 15 46 67 72 80 81 81 79 77 76 72 67 62 58 54 51 49 46 41 35 30 24 14 15 17 15 11 5 1 8 13 19 24 27 27 28 28 28
9 10 6 5 7 13 10 20 22 12 22 18 36 65 71 75 83 87 86 84 80 75 69 64 60 56 54 49 43 38 36 33 28 22 24 21 16 10 3 5 12 18 23 26 27 28 28 29 33
8 7 10 11 8 7 8 17 11 33 35 37 40 65 75 82 90 96 92 88 85 80 74 69 65 62 57 50 45 42 38 36 32 28 25 20 14 6 1 6 14 21 24 25 25 27 31 34 37
10 15 21 10 13 14 9 33 9 10 25 44 50 61 68 74 82 92 92 90 88 85 80 74 69 63 56 52 48 45 43 41 36 31 25 19 13 8 5 8 16 21 23 25 25 28 32 38 42
Wind_Direction_500mb
284 72 66 357 328 153 125 59 74 96 92 71 67 74 81 50 34 97 122 231 143 187 189 176 167 157 152 155 149 137 125 110 97 95 101 69 48 44 44 39 32 32 36 45 50 53 55 59 67
91 102 30 294 252 141 88 140 85 71 85 106 98 115 86 67 75 96 74 13 133 174 191 179 174 164 158 164 161 148 137 118 108 104 100 57 45 43 43 29 26 25 28 34 44 47 52 53 57
92 70 311 263 297 32 116 102 104 100 103 139 116 50 50 14 58 76 96 66 123 164 174 176 177 163 158 177 171 159 150 136 109 97 81 55 49 45 29 22 23 23 23 28 43 38 35 34 34
48 295 263 281 86 18 101 82 98 118 107 28 89 92 80 32 86 107 105 100 132 137 165 194 181 171 181 189 175 157 146 139 115 65 51 53 80 36 21 20 19 21 27 32 43 31 25 22 21
357 284 281 266 64 86 54 75 158 102 91 125 338 82 92 67 98 91 92 103 116 143 177 199 191 181 188 192 177 130 227 288 59 72 68 89 58 23 24 20 18 20 25 35 39 29 22 22 21
281 278 286 200 129 99 96 111 155 142 106 111 116 101 79 140 120 116 105 116 118 155 174 193 194 195 198 207 185 161 212 260 338 40 83 100 70 23 20 14 10 11 14 20 25 21 19 19 23
308 344 283 336 120 121 130 139 213 154 158 63 6 107 134 129 115 113 128 144 158 160 174 176 198 211 214 218 209 184 196 246 271 304 302 319 317 318 356 3 2 356 355 4 12 17 19 21 26
337 282 314 269 200 172 113 169 72 14 75 107 14 42 137 156 128 154 171 178 167 179 183 178 182 203 208 213 213 203 198 225 231 251 266 303 300 300 323 354 357 351 349 0 9 13 18 20 18
11 317 271 238 301 111 126 159 140 154 121 104 65 105 138 143 128 162 99 190 197 193 200 210 220 215 206 208 212 211 209 227 236 251 259 267 281 260 286 354 11 355 19 11 13 15 15 12 14
325 338 4 8 35 30 130 295 149 179 150 127 115 95 98 132 150 168 166 206 217 216 217 221 226 227 216 216 212 207 225 226 236 248 255 248 231 215 235 13 3 349 9 15 9 4 9 11 4
96 275 10 61 53 359 117 257 114 261 235 63 128 148 126 170 160 176 198 219 231 230 239 235 236 235 229 223 220 208 214 222 224 215 222 219 233 222 303 356 330 332 338 354 350 344 357 8 11
285 132 351 55 118 42 101 35 230 253 115 164 165 162 149 153 160 173 190 205 215 231 242 244 237 232 228 224 210 182 200 211 217 208 201 185 183 198 241 292 303 300 318 331 316 346 360 357 359
230 150 145 196 217 219 299 253 257 152 202 204 192 173 168 168 162 185 192 214 226 235 241 244 244 240 216 210 180 183 193 211 215 205 194 196 201 214 277 263 279 315 283 310 335 329 333 338 344
19 342 263 206 218 223 219 249 184 162 198 201 184 186 194 201 202 229 240 254 258 256 257 251 234 214 188 182 182 185 191 188 205 205 211 210 225 259 293 299 292 257 290 323 324 314 314 329 330
317 302 250 223 210 247 199 265 218 183 187 178 177 197 205 215 225 242 255 261 262 264 259 248 227 220 192 186 184 182 185 177 180 182 210 218 235 248 247 275 277 290 261 305 314 315 304 298 317
242 216 271 359 164 175 168 262 163 167 173 184 188 199 214 242 246 261 265 265 271 267 258 238 212 198 178 172 174 175 180 175 168 165 170 168 162 163 177 146 132 81 76 5 358 357 339 309 309
200 256 223 179 182 134 187 271 161 175 191 201 197 208 220 235 242 247 246 246 244 236 207 175 161 163 161 165 171 174 173 171 164 170 179 158 146 140 132 100 90 48 316 303 328 329 321 307 311
217 211 248 244 205 200 199 257 176 197 204 212 201 206 216 218 233 241 228 221 206 173 151 140 139 146 154 162 169 167 168 168 170 171 158 148 140 135 131 129 115 38 327 343 346 344 332 343 340
282 297 290 277 141 189 228 247 211 196 207 212 208 202 206 207 229 220 200 186 164 154 147 142 142 145 152 158 161 164 168 165 170 160 150 133 121 114 108 101 92 72 45 31 23 11 355 348 351
238 259 261 283 136 174 271 266 265 181 207 207 203 202 196 195 212 195 182 167 163 157 155 150 149 150 157 164 163 166 165 162 155 139 131 124 118 108 96 80 68 55 44 38 30 24 14 5 2
246 238 241 242 153 223 284 269 254 247 207 200 210 207 197 205 197 187 176 170 168 164 163 164 164 166 164 167 169 164 157 145 138 133 127 119 110 101 90 78 63 49 36 28 21 17 12 14 10
241 218 233 258 297 244 151 281 233 255 183 184 196 195 189 191 195 186 176 173 175 171 170 172 177 174 170 165 160 155 150 145 139 135 128 120 114 101 83 67 52 39 34 26 23 19 13 7 9
212 44 54 204 254 304 263 278 242 227 208 210 200 194 189 186 189 181 179 179 177 178 177 176 171 165 160 159 158 156 153 149 143 138 133 125 114 96 73 54 40 29 24 21 17 12 7 5 4
122 83 75 57 207 256 218 222 236 220 219 213 193 187 187 181 185 179 181 177 173 170 167 165 165 164 164 165 161 161 158 155 151 141 132 118 104 78 58 40 26 20 14 10 8 7 3 1 1
172 133 230 281 197 239 165 219 244 323 153 190 184 184 185 180 184 183 180 174 171 169 168 170 172 171 169 168 167 170 170 164 157 142 129 119 106 81 32 12 10 5 4 1 360 355 352 351 350
186 184 165 225 216 278 332 239 247 10 58 214 186 178 179 181 186 188 181 177 174 171 172 174 176 177 175 176 177 177 175 169 164 152 156 168 186 219 233 323 356 7 6 0 357 352 348 347 346
187 215 231 347 99 4 219 260 257 164 177 156 164 172 178 179 188 189 183 181 177 176 177 180 180 181 180 181 181 177 175 179 183 187 197 198 195 191 182 16 10 6 2 353 348 346 343 343 342
169 165 110 181 215 235 258 251 240 224 214 199 180 182 181 180 190 191 187 185 183 183 184 184 186 187 186 185 183 183 187 190 191 197 199 193 188 182 159 16 1 353 349 343 341 338 340 339 340
140 206 219 169 179 227 294 256 216 207 199 193 193 187 184 183 190 194 192 191 190 190 191 190 191 191 190 188 188 192 197 199 203 205 198 193 189 184 112 345 338 339 338 337 338 337 337 337 335
223 186 189 185 226 233 247 265 7 9 182 181 190 190 189 188 189 195 196 195 195 195 196 197 197 196 195 195 196 199 205 207 208 205 198 195 197 212 262 308 323 328 330 334 332 334 335 336 331
Wind_Speed_850mb
2 5 4 8 5 5 9 7 4 8 15 22 13 31 25 40 13 10 15 6 21 19 19 26 22 20 21 20 17 14 12 12 13 14 14 12 14 17 20 23 26 27 26 20 19 18 17 17 16
5 10 7 9 4 7 8 12 17 17 20 12 8 9 40 19 32 24 9 6 23 23 14 26 22 19 15 15 15 12 13 12 11 13 11 9 12 14 17 21 24 25 22 20 15 14 14 13 13
9 9 6 4 3 10 10 10 16 22 10 2 9 21 18 12 19 10 9 14 21 27 10 18 20 18 13 11 11 10 9 6 6 7 7 9 11 13 15 20 25 28 24 18 13 12 11 10 9
7 4 9 3 9 11 17 15 18 21 14 4 14 22 21 15 7 15 15 21 14 24 21 18 20 19 16 14 10 6 2 3 5 5 6 8 10 8 13 20 25 28 31 24 16 13 12 11 10
14 8 5 4 14 9 15 20 2 8 11 14 2 20 23 21 23 17 16 19 10 24 17 20 27 22 20 16 10 8 1 2 4 5 5 8 10 11 15 21 23 25 27 25 17 15 13 12 11
8 5 6 7 12 13 14 10 8 7 19 9 22 26 11 14 13 19 12 21 12 23 20 14 28 25 23 19 14 13 7 9 3 3 5 5 8 8 14 20 22 24 23 23 21 19 19 17 14
7 5 11 14 14 11 10 10 8 10 14 15 8 13 22 12 15 14 16 15 21 15 19 15 21 25 22 20 17 16 9 9 7 3 1 2 5 9 12 16 20 22 20 20 22 22 21 19 15
6 3 7 6 4 7 15 11 10 11 11 13 2 5 13 9 14 9 10 8 11 16 23 28 25 28 34 29 26 24 21 20 13 10 9 9 10 11 12 15 26 27 21 17 16 18 20 19 16
5 4 7 5 8 8 18 9 5 4 12 11 4 7 14 9 12 11 4 3 9 14 16 18 18 20 33 34 25 27 23 21 18 15 14 13 12 9 6 13 19 33 23 25 27 22 21 18 14
4 4 11 16 17 8 19 6 24 8 17 10 12 6 5 4 15 18 23 15 16 15 19 21 22 21 25 33 34 21 24 26 21 20 16 16 12 13 2 12 19 21 20 20 24 31 23 25 20
1 4 10 11 15 16 15 3 4 7 7 18 23 10 4 3 11 16 18 20 17 16 18 20 24 26 27 29 29 29 28 20 18 16 16 12 14 13 3 6 16 19 19 21 20 26 30 27 29
6 3 7 7 2 2 2 3 3 5 10 11 15 11 9 9 9 11 11 10 12 15 17 17 16 19 27 29 26 20 28 31 26 16 15 18 14 10 5 5 7 16 14 17 18 16 23 30 32
9 6 0 3 4 6 4 8 11 15 15 13 11 11 13 12 9 8 9 9 10 14 17 17 16 15 14 24 23 28 27 30 30 23 17 16 11 6 3 6 9 10 5 15 17 16 19 23 25
9 10 13 12 14 11 8 15 10 18 22 15 11 14 17 15 13 13 13 15 15 18 18 18 17 18 20 32 35 35 33 27 23 18 15 14 11 10 11 16 13 8 15 11 16 19 20 33 21
6 9 15 28 22 7 16 13 18 25 23 21 21 19 16 15 14 17 16 18 21 20 21 20 20 20 29 34 39 39 33 25 17 13 8 8 12 12 10 10 6 6 13 15 19 14 20 22 18
7 8 6 8 29 11 14 13 21 32 32 29 24 19 16 16 14 17 18 21 19 19 18 15 18 20 26 33 36 36 32 26 23 20 15 14 12 10 6 2 3 7 6 6 9 12 12 11 19
13 10 16 8 27 12 17 4 16 30 32 33 30 25 20 20 17 19 19 19 17 15 10 10 18 26 33 36 39 37 35 31 28 22 20 16 10 6 4 4 4 4 5 5 9 12 13 16 18
13 12 13 13 15 11 15 22 12 34 38 42 36 31 26 21 23 22 18 17 15 15 18 22 29 34 37 38 35 38 34 31 26 25 22 17 16 11 7 6 4 2 4 6 8 10 14 18 22
18 19 15 10 7 11 19 21 18 44 39 40 42 39 34 28 31 21 22 21 21 24 28 33 36 40 42 45 45 40 36 32 30 28 23 22 24 22 18 15 13 12 12 16 17 17 19 23 25
20 21 18 16 16 7 15 23 19 35 44 60 52 45 41 39 27 26 29 31 31 32 36 46 50 50 47 45 41 39 39 36 31 34 33 28 23 20 16 14 14 14 15 16 19 22 26 29 33
17 18 15 17 9 9 12 17 26 23 42 44 44 46 45 45 39 38 40 41 41 43 47 47 46 44 43 41 43 43 43 47 42 37 31 28 22 18 15 14 14 15 15 17 20 24 27 31 32
19 16 22 14 8 9 14 12 12 14 16 21 40 40 49 46 44 43 47 53 52 50 46 44 42 39 38 40 47 52 50 46 39 34 28 23 18 15 13 13 13 14 18 20 24 27 29 29 31
8 10 2 5 11 11 14 15 12 16 18 30 43 54 51 54 53 54 52 56 57 55 54 51 48 49 52 53 48 42 44 41 37 30 24 19 15 12 11 12 16 18 21 24 25 27 31 33 34
15 10 6 3 2 13 22 23 14 23 25 22 37 54 57 60 57 55 57 60 63 61 59 56 53 52 48 44 42 40 38 37 34 27 18 14 11 10 11 13 14 17 21 24 27 30 32 33 32
10 13 3 4 4 16 8 20 35 5 10 17 41 62 67 69 64 66 68 68 68 68 64 58 53 52 50 48 46 45 40 35 29 19 10 8 7 5 5 7 10 15 19 22 24 27 29 30 31
19 18 11 13 10 7 7 14 11 6 15 21 63 69 72 75 72 74 74 73 72 69 64 59 56 54 51 49 49 46 40 32 24 12 4 7 5 4 3 3 7 12 17 21 25 27 27 27 28
12 18 20 9 3 4 11 15 10 11 4 15 46 67 72 80 81 81 79 77 76 72 67 62 58 54 51 49 46 41 35 30 24 14 15 17 15 11 5 1 8 13 19 24 27 27 28 28 28
9 10 6 5 7 13 10 20 22 12 22 18 36 65 71 75 83 87 86 84 80 75 69 64 60 56 54 49 43 38 36 33 28 22 24 21 16 10 3 5 12 18 23 26 27 28 28 29 33
8 7 10 11 8 7 8 17 11 33 35 37 40 65 75 82 90 96 92 88 85 80 74 69 65 62 57 50 45 42 38 36 32 28 25 20 14 6 1 6 14 21 24 25 25 27 31 34 37
10 15 21 10 13 14 9 33 9 10 25 44 50 61 68 74 82 92 92 90 88 85 80 74 69 63 56 52 48 45 43 41 36 31 25 19 13 8 5 8 16 21 23 25 25 28 32 38 42
Wind_Direction_850mb
284 72 66 357 328 153 125 59 74 96 92 71 67 74 81 50 34 97 122 231 143 187 189 176 167 157 152 155 149 137 125 110 97 95 101 69 48 44 44 39 32 32 36 45 50 53 55 59 67
91 102 30 294 252 141 88 140 85 71 85 106 98 115 86 67 75 96 74 13 133 174 191 179 174 164 158 164 161 148 137 118 108 104 100 57 45 43 43 29 26 25 28 34 44 47 52 53 57
92 70 311 263 297 32 116 102 104 100 103 139 116 50 50 14 58 76 96 66 123 164 174 176 177 163 158 177 171 159 150 136 109 97 81 55 49 45 29 22 23 23 23 28 43 38 35 34 34
48 295 263 281 86 18 101 82 98 118 107 28 89 92 80 32 86 107 105 100 132 137 165 194 181 171 181 189 175 157 146 139 115 65 51 53 80 36 21 20 19 21 27 32 43 31 25 22 21
357 284 281 266 64 86 54 75 158 102 91 125 338 82 92 67 98 91 92 103 116 143 177 199 191 181 188 192 177 130 227 288 59 72 68 89 58 23 24 20 18 20 25 35 39 29 22 22 21
281 278 286 200 129 99 96 111 155 142 106 111 116 101 79 140 120 116 105 116 118 155 174 193 194 195 198 207 185 161 212 260 338 40 83 100 70 23 20 14 10 11 14 20 25 21 19 19 23
308 344 283 336 120 121 130 139 213 154 158 63 6 107 134 129 115 113 128 144 158 160 174 176 198 211 214 218 209 184 196 246 271 304 302 319 317 318 356 3 2 356 355 4 12 17 19 21 26
337 282 314 269 200 172 113 169 72 14 75 107 14 42 137 156 128 154 171 178 167 179 183 178 182 203 208 213 213 203 198 225 231 251 266 303 300 300 323 354 357 351 349 0 9 13 18 20 18
11 317 271 238 301 111 126 159 140 154 121 104 65 105 138 143 128 162 99 190 197 193 200 210 220 215 206 208 212 211 209 227 236 251 259 267 281 260 286 354 11 355 19 11 13 15 15 12 14
325 338 4 8 35 30 130 295 149 179 150 127 115 95 98 132 150 168 166 206 217 216 217 221 226 227 216 216 212 207 225 226 236 248 255 248 231 215 235 13 3 349 9 15 9 4 9 11 4
96 275 10 61 53 359 117 257 114 261 235 63 128 148 126 170 160 176 198 219 231 230 239 235 236 235 229 223 220 208 214 222 224 215 222 219 233 222 303 356 330 332 338 354 350 344 357 8 11
285 132 351 55 118 42 101 35 230 253 115 164 165 162 149 153 160 173 190 205 215 231 242 244 237 232 228 224 210 182 200 211 217 208 201 185 183 198 241 292 303 300 318 331 316 346 360 357 359
230 150 145 196 217 219 299 253 257 152 202 204 192 173 168 168 162 185 192 214 226 235 241 244 244 240 216 210 180 183 193 211 215 205 194 196 201 214 277 263 279 315 283 310 335 329 333 338 344
19 342 263 206 218 223 219 249 184 162 198 201 184 186 194 201 202 229 240 254 258 256 257 251 234 214 188 182 182 185 191 188 205 205 211 210 225 259 293 299 292 257 290 323 324 314 314 329 330
317 302 250 223 210 247 199 265 218 183 187 178 177 197 205 215 225 242 255 261 262 264 259 248 227 220 192 186 184 182 185 177 180 182 210 218 235 248 247 275 277 290 261 305 314 315 304 298 317
242 216 271 359 164 175 168 262 163 167 173 184 188 199 214 242 246 261 265 265 271 267 258 238 212 198 178 172 174 175 180 175 168 165 170 168 162 163 177 146 132 81 76 5 358 357 339 309 309
200 256 223 179 182 134 187 271 161 175 191 201 197 208 220 235 242 247 246 246 244 236 207 175 161 163 161 165 171 174 173 171 164 170 179 158 146 140 132 100 90 48 316 303 328 329 321 307 311
217 211 248 244 205 200 199 257 176 197 204 212 201 206 216 218 233 241 228 221 206 173 151 140 139 146 154 162 169 167 168 168 170 171 158 148 140 135 131 129 115 38 327 343 346 344 332 343 340
282 297 290 277 141 189 228 247 211 196 207 212 208 202 206 207 229 220 200 186 164 154 147 142 142 145 152 158 161 164 168 165 170 160 150 133 121 114 108 101 92 72 45 31 23 11 355 348 351
238 259 261 283 136 174 271 266 265 181 207 207 203 202 196 195 212 195 182 167 163 157 155 150 149 150 157 164 163 166 165 162 155 139 131 124 118 108 96 80 68 55 44 38 30 24 14 5 2
246 238 241 242 153 223 284 269 254 247 207 200 210 207 197 205 197 187 176 170 168 164 163 164 164 166 164 167 169 164 157 145 138 133 127 119 110 101 90 78 63 49 36 28 21 17 12 14 10
241 218 233 258 297 244 151 281 233 255 183 184 196 195 189 191 195 186 176 173 175 171 170 172 177 174 170 165 160 155 150 145 139 135 128 120 114 101 83 67 52 39 34 26 23 19 13 7 9
212 44 54 204 254 304 263 278 242 227 208 210 200 194 189 186 189 181 179 179 177 178 177 176 171 165 160 159 158 156 153 149 143 138 133 125 114 96 73 54 40 29 24 21 17 12 7 5 4
122 83 75 57 207 256 218 222 236 220 219 213 193 187 187 181 185 179 181 177 173 170 167 165 165 164 164 165 161 161 158 155 151 141 132 118 104 78 58 40 26 20 14 10 8 7 3 1 1
172 133 230 281 197 239 165 219 244 323 153 190 184 184 185 180 184 183 180 174 171 169 168 170 172 171 169 168 167 170 170 164 157 142 129 119 106 81 32 12 10 5 4 1 360 355 352 351 350
186 184 165 225 216 278 332 239 247 10 58 214 186 178 179 181 186 188 181 177 174 171 172 174 176 177 175 176 177 177 175 169 164 152 156 168 186 219 233 323 356 7 6 0 357 352 348 347 346
187 215 231 347 99 4 219 260 257 164 177 156 164 172 178 179 188 189 183 181 177 176 177 180 180 181 180 181 181 177 175 179 183 187 197 198 195 191 182 16 10 6 2 353 348 346 343 343 342
169 165 110 181 215 235 258 251 240 224 214 199 180 182 181 180 190 191 187 185 183 183 184 184 186 187 186 185 183 183 187 190 191 197 199 193 188 182 159 16 1 353 349 343 341 338 340 339 340
140 206 219 169 179 227 294 256 216 207 199 193 193 187 184 183 190 194 192 191 190 190 191 190 191 191 190 188 188 192 197 199 203 205 198 193 189 184 112 345 338 339 338 337 338 337 337 337 335
223 186 189 185 226 233 247 265 7 9 182 181 190 190 189 188 189 195 196 195 195 195 196 197 197 196 195 195 196 199 205 207 208 205 198 195 197 212 262 308 323 328 330 334 332 334 335 336 331